GFSSGP_prec_cloud_198.txt.gz
Cloud_Cover
4 0 0 5 7 89 100 83 100 10 1 6 37 21 28 5 0 0 0 0 0 0 0 0 0 0 2 0 0 0 0 0 0 0 0 5 97 88 65 54 12 84 78 100 96 98 75 99 100
11 37 42 5 20 100 100 100 100 26 2 4 0 3 0 0 0 7 13 0 0 0 0 0 0 0 8 0 0 0 0 0 0 0 0 0 74 100 100 62 70 28 67 100 100 45 100 100 79
97 96 5 11 54 100 100 88 100 51 3 5 0 0 0 0 0 0 0 0 0 5 0 0 0 0 0 0 0 0 0 4 2 0 0 0 25 47 10 15 8 14 40 33 66 6 100 100 100
97 40 72 64 11 100 100 13 100 100 35 5 4 5 0 0 0 0 0 0 0 0 0 0 0 0 5 0 1 5 9 4 1 0 0 0 0 0 6 3 8 5 100 98 100 100 50 100 42
30 21 3 75 97 100 100 33 45 100 96 16 5 0 2 0 0 0 0 0 0 0 0 0 0 0 0 0 0 0 0 0 0 0 0 0 0 0 6 0 0 0 0 0 2 72 89 100 100
5 33 4 78 99 44 77 7 94 75 98 38 8 1 5 28 0 0 0 0 0 15 6 0 31 0 0 0 0 0 0 0 0 0 0 0 0 0 0 0 0 0 0 0 0 9 64 90 42
66 78 7 95 43 81 76 94 89 100 75 5 18 6 5 84 78 5 0 0 0 15 23 26 5 33 6 0 0 0 0 0 0 0 0 0 0 0 0 0 0 0 0 0 0 0 0 0 0
82 100 4 72 96 85 3 5 93 100 5 5 5 13 30 26 22 5 0 0 0 1 4 16 2 0 0 1 1 0 0 0 0 0 0 0 0 0 0 0 0 0 0 0 0 0 0 0 0
97 100 60 5 5 68 40 8 79 97 64 20 6 22 5 6 5 3 0 50 0 0 10 33 54 9 2 4 19 45 0 0 0 0 0 0 0 0 0 18 0 0 0 0 0 0 0 0 0
77 100 67 10 12 9 7 100 87 54 97 12 5 64 13 36 5 34 50 41 12 1 41 100 58 6 1 4 8 5 0 0 0 0 0 0 0 0 73 89 56 7 2 0 0 0 0 0 37
66 100 27 5 96 77 20 80 5 5 30 2 39 100 43 8 25 7 9 3 5 0 0 93 53 72 5 3 65 58 16 12 5 0 0 4 3 0 0 20 33 77 99 81 48 60 56 100 100
100 100 82 6 12 45 73 10 45 71 62 49 6 65 3 5 6 24 5 52 5 1 0 0 86 92 60 26 1 4 7 12 17 9 7 3 5 0 0 0 0 0 5 66 99 100 100 96 25
100 100 100 100 7 78 58 26 5 5 9 60 5 7 54 21 32 16 59 35 5 4 1 0 72 8 1 9 2 5 7 12 100 100 100 99 9 2 1 3 0 0 5 4 5 44 47 96 86
100 100 100 100 69 65 98 97 12 12 6 99 7 76 76 41 42 5 7 9 58 10 4 0 2 18 0 0 37 4 5 5 7 3 13 4 1 1 5 5 0 0 0 2 5 5 20 12 39
100 100 100 100 88 92 20 97 61 55 5 40 5 21 81 5 5 12 78 89 100 100 97 99 95 81 85 24 2 0 0 5 5 6 22 7 83 99 94 100 98 95 30 25 2 31 35 5 5
100 100 100 100 79 100 100 100 37 100 73 39 6 100 73 92 71 8 6 9 36 91 52 3 13 84 94 11 5 6 1 12 17 5 38 52 98 100 99 100 100 100 96 100 100 8 5 5 5
100 100 100 100 100 98 37 81 5 96 100 59 83 100 96 100 100 100 100 94 97 45 5 27 4 3 64 100 50 26 89 100 78 66 51 10 18 12 5 5 12 5 4 4 4 4 11 11 5
100 100 100 100 100 99 23 89 35 29 100 100 100 45 100 81 100 90 61 11 5 8 5 10 32 78 27 38 55 87 100 56 4 5 5 5 5 5 5 5 5 5 4 4 5 5 5 5 1
100 100 100 100 100 100 100 100 100 100 100 100 100 100 100 100 100 100 76 5 15 5 89 98 97 5 5 5 55 100 100 91 5 1 5 5 5 5 5 5 28 62 55 13 5 5 5 20 29
100 100 100 100 100 100 100 100 100 100 100 100 100 100 100 100 100 93 76 48 5 7 20 41 37 53 48 5 5 5 5 5 5 0 5 7 5 3 9 9 100 78 38 20 8 28 22 47 84
100 100 100 100 100 100 100 100 100 100 100 100 100 100 100 100 100 72 41 24 35 97 80 10 5 5 0 5 5 7 5 5 4 2 5 5 5 5 2 4 21 91 90 100 100 100 100 100 100
100 100 100 100 100 100 100 100 100 100 100 100 100 100 100 100 72 100 96 44 100 100 100 95 57 96 88 34 7 7 5 0 0 0 0 0 1 0 0 3 4 5 5 6 48 94 100 51 84
100 100 100 100 100 100 100 100 100 100 100 99 100 100 100 100 100 100 100 100 100 100 100 100 100 97 43 5 4 2 3 0 3 2 1 1 5 14 6 5 5 5 11 90 57 70 53 98 85
100 100 100 100 100 100 100 100 100 100 100 100 100 100 100 100 100 95 91 100 99 88 88 100 92 58 21 45 51 4 4 5 5 5 85 89 56 6 46 6 86 82 89 86 100 98 36 59 27
100 100 100 100 100 100 100 100 100 100 100 100 100 100 100 100 100 100 100 100 100 100 98 100 100 100 92 96 89 92 88 5 71 98 5 67 9 56 100 100 97 100 100 100 100 100 100 99 97
100 100 100 100 98 100 100 100 100 100 100 100 100 100 100 100 100 100 100 100 83 100 100 100 100 74 77 93 72 88 97 100 100 97 100 100 96 100 100 100 100 100 100 100 100 100 100 100 100
100 100 100 100 100 100 100 100 100 100 100 100 100 100 100 100 100 100 100 100 100 100 100 100 100 68 41 100 100 100 100 100 100 42 79 100 100 100 100 100 100 100 100 100 86 97 100 67 100
100 100 100 100 100 100 100 100 100 100 100 100 100 100 100 100 100 100 100 100 100 100 100 100 100 100 100 100 100 100 100 100 100 82 99 100 100 100 100 100 100 98 100 100 100 100 100 100 100
100 100 100 100 100 100 100 100 100 100 100 100 100 100 100 100 100 100 100 100 100 100 100 100 100 100 100 100 100 97 61 100 46 92 70 100 100 100 100 100 100 100 100 100 100 100 100 100 100
100 100 100 100 100 100 100 100 100 100 100 100 100 100 100 100 100 100 100 100 100 100 100 100 100 100 100 100 100 100 100 100 100 100 100 100 100 100 100 100 100 100 100 100 89 97 98 72 96

GFSSGP_prec_cloud_201.txt.gz
Cloud_Cover
5 20 24 32 7 5 39 5 6 35 57 2 0 2 0 0 0 2 12 0 4 11 0 0 0 2 0 11 6 1 0 0 0 0 0 100 82 88 16 41 98 38 100 100 100 100 100 91 98
5 5 6 16 5 18 76 94 50 77 88 7 2 0 0 0 1 79 56 35 0 0 0 0 0 0 0 0 1 0 0 0 0 0 0 40 100 100 100 78 97 100 86 6 80 69 95 85 100
26 5 5 5 50 60 77 12 44 100 68 5 8 5 0 11 38 14 0 34 0 0 0 0 0 0 4 8 0 0 0 0 0 0 0 20 100 100 100 11 13 7 5 63 96 42 10 22 100
6 5 5 5 22 9 100 99 98 9 71 5 5 3 0 0 0 0 1 14 16 8 0 0 0 0 3 7 2 3 0 0 0 0 0 1 2 8 3 0 0 2 5 4 77 100 100 78 37
5 5 6 5 22 41 87 97 16 15 43 88 4 2 4 1 0 0 2 1 29 20 1 0 0 0 0 0 9 10 0 0 0 0 0 0 0 0 0 0 0 0 0 0 10 13 3 19 100
62 26 29 5 11 38 100 41 100 24 56 63 30 21 6 5 0 5 4 1 0 20 13 1 31 0 0 0 0 0 0 0 0 0 0 0 0 0 0 0 0 0 0 0 0 0 0 5 22
64 5 86 6 5 5 93 100 100 48 62 70 15 76 22 9 1 5 16 11 19 24 25 26 5 32 3 0 0 0 0 0 0 0 0 0 0 0 0 0 0 0 0 0 0 0 0 0 0
5 1 5 5 22 5 41 72 100 43 96 100 94 100 26 30 2 0 15 50 66 56 35 35 26 11 1 1 1 0 0 0 0 0 0 0 0 0 0 0 0 0 0 0 0 0 0 0 0
74 9 5 19 5 7 7 50 100 5 5 26 100 99 6 0 3 17 77 96 98 74 48 36 35 93 12 0 15 6 4 0 0 0 0 0 0 0 0 0 0 0 0 0 0 0 5 5 4
28 97 5 5 5 78 7 52 100 10 6 69 26 88 19 5 0 29 70 99 83 67 42 14 11 13 14 3 28 21 5 6 5 0 0 0 1 0 0 0 62 55 3 0 0 1 5 6 35
75 100 5 3 65 13 49 99 94 74 5 5 85 95 100 1 37 14 2 20 17 6 1 4 1 3 72 99 32 27 17 8 5 5 0 5 61 12 3 12 0 1 0 0 0 1 69 17 98
100 100 45 97 100 36 32 65 99 68 5 5 54 5 3 5 33 4 5 0 4 5 6 6 3 0 0 40 77 10 29 43 15 1 66 100 100 100 5 13 5 5 10 2 0 0 5 5 46
100 100 97 100 16 5 5 19 67 5 68 18 45 69 14 5 5 5 5 5 4 3 6 36 5 4 0 4 47 8 11 13 5 4 6 54 52 35 9 1 4 14 20 73 97 94 75 4 5
100 100 100 98 43 5 5 61 100 22 5 5 5 75 93 18 5 5 5 41 4 1 3 3 14 50 94 46 6 6 15 56 26 5 2 8 14 37 20 12 43 94 100 53 69 100 8 4 3
100 100 100 80 63 11 16 98 80 25 69 88 66 9 16 90 11 8 39 6 5 4 26 10 100 100 100 100 99 75 45 73 18 5 89 5 0 0 5 3 5 5 6 19 67 40 83 9 5
100 100 100 94 98 76 42 91 96 98 59 86 82 81 35 100 30 87 100 12 5 5 5 0 3 12 7 4 1 1 0 6 6 12 5 98 78 81 0 3 5 20 8 12 18 5 5 5 5
100 100 100 100 100 84 89 100 100 100 100 100 100 100 92 100 100 77 91 58 5 5 5 5 5 2 19 0 0 0 4 4 5 33 59 50 59 16 18 5 8 7 7 42 76 51 40 27 20
100 100 100 100 100 99 94 99 100 100 100 100 100 100 98 100 99 88 84 90 92 31 9 93 57 2 1 0 1 5 5 5 5 5 98 17 18 3 5 5 54 31 47 23 56 42 69 53 4
100 100 100 100 100 100 100 100 100 93 100 100 100 100 100 100 49 100 97 28 100 44 62 5 5 5 0 3 28 83 99 24 7 6 5 5 6 18 58 7 76 8 100 17 18 35 40 77 24
100 100 100 100 100 100 100 100 100 100 100 100 100 48 94 73 98 100 97 63 64 56 94 37 56 5 5 4 39 72 100 100 100 93 33 29 48 57 5 19 5 27 62 51 68 37 23 18 35
100 100 100 100 100 100 100 100 100 100 100 99 100 78 100 92 100 100 100 96 90 81 64 75 23 5 5 15 11 69 71 98 97 62 20 37 17 3 0 1 5 8 5 10 35 6 40 8 14
100 100 100 100 100 100 100 100 100 100 100 100 98 100 100 100 100 100 99 100 100 100 96 96 96 89 15 10 8 99 100 59 4 4 16 8 68 0 4 5 6 27 5 100 8 87 21 39 96
100 100 100 100 100 100 100 100 100 100 100 100 100 100 100 100 100 100 100 100 100 100 97 78 100 88 72 98 100 63 24 10 6 7 16 99 12 5 0 3 48 42 8 5 96 11 31 49 98
100 100 100 100 100 100 100 100 100 100 100 100 100 100 100 100 100 100 100 100 100 100 100 100 100 100 97 100 46 30 40 30 67 76 97 49 53 10 72 21 82 100 78 66 100 100 100 100 100
100 100 100 100 100 100 100 100 100 100 100 100 100 100 100 100 100 100 100 100 100 95 95 97 93 98 89 77 44 48 43 61 98 57 76 88 88 96 100 98 100 92 100 100 100 100 97 100 100
100 100 100 100 100 100 100 100 100 100 100 100 100 100 100 100 100 100 100 100 100 100 100 100 100 100 100 100 72 89 77 44 7 76 100 88 95 100 100 98 100 100 100 100 100 100 99 91 100
100 100 100 100 100 100 100 100 100 100 100 100 100 100 100 100 100 100 100 100 100 100 100 100 100 100 100 100 97 100 100 100 100 100 100 100 100 100 100 84 100 100 100 100 100 67 100 100 100
100 100 100 100 100 100 100 100 100 100 100 100 100 100 100 100 100 100 100 100 100 100 100 100 100 100 100 100 100 100 100 100 100 100 100 100 100 100 75 100 99 100 100 100 100 100 100 85 98
100 100 100 100 100 100 100 100 100 100 100 100 100 100 100 100 100 100 100 100 100 100 100 100 100 100 100 100 100 100 100 100 100 100 100 100 100 100 100 100 100 100 100 100 100 100 100 100 100
100 100 100 100 100 100 100 100 100 100 100 100 100 100 100 100 100 100 100 100 100 100 100 100 100 100 100 100 100 100 100 100 100 100 100 100 100 100 100 100 100 100 100 100 100 100 100 100 7

GFSSGP_prec_cloud_207.txt.gz
Cloud_Cover
83 53 100 43 4 5 5 1 5 0 0 0 10 10 0 0 0 2 43 22 0 19 0 0 0 11 17 11 1 3 0 0 5 52 21 75 99 62 100 81 9 10 7 45 4 0 3 25 9
90 93 75 5 11 5 1 0 0 0 0 0 3 27 0 11 98 96 56 76 4 3 0 0 0 0 16 3 0 0 0 0 0 0 0 56 100 100 100 58 60 3 5 5 2 0 4 6 1
85 100 72 7 6 1 0 4 0 1 5 0 0 0 0 56 95 99 19 95 24 0 0 0 0 0 12 0 0 0 0 0 0 0 0 10 97 100 43 3 5 60 40 4 4 0 0 2 4
100 100 100 5 5 5 5 4 0 0 5 2 0 0 3 31 80 78 81 78 0 0 0 0 0 1 9 0 6 0 0 0 0 0 0 8 21 20 0 0 0 1 18 95 1 0 0 0 0
94 57 97 64 7 5 5 7 5 5 5 7 4 71 63 47 10 100 100 49 9 19 0 1 0 0 0 13 4 0 0 0 0 0 0 0 3 0 0 0 0 0 0 0 0 0 0 0 0
100 80 100 99 37 5 5 10 0 5 5 91 8 5 26 75 100 100 100 49 21 9 11 8 31 0 0 0 0 0 0 0 0 0 0 0 0 0 0 0 0 0 0 0 0 0 0 0 0
100 45 93 96 100 79 46 5 8 4 3 92 56 33 86 100 100 100 90 48 30 18 24 17 19 31 3 6 1 0 0 0 0 0 0 0 0 0 0 0 0 0 0 0 0 0 0 0 0
100 100 10 73 100 95 66 5 14 5 5 60 100 70 85 98 100 86 70 80 45 45 28 15 24 3 2 44 6 2 1 0 3 0 0 0 0 0 0 0 0 0 0 0 0 0 0 0 0
100 99 96 60 100 91 58 52 9 28 5 20 100 79 45 39 98 99 100 100 98 91 52 18 9 7 0 0 15 0 1 5 7 5 5 5 3 1 0 52 55 13 0 0 0 0 0 0 6
100 100 82 6 50 100 100 99 37 5 5 5 16 100 65 100 100 100 100 100 100 99 100 66 18 22 20 39 8 5 5 17 27 5 3 5 3 3 5 6 13 99 100 6 2 1 0 8 75
96 100 100 99 14 30 96 100 72 5 5 5 5 92 100 100 100 99 94 84 100 100 100 100 48 28 29 5 20 5 4 4 5 5 11 6 0 1 0 4 4 2 7 12 5 5 4 1 5
100 100 95 100 63 24 97 59 5 5 5 4 5 31 100 100 100 100 100 100 100 100 100 100 51 50 35 12 12 0 4 1 5 5 30 6 11 20 47 5 5 5 4 5 5 4 5 5 13
100 100 54 77 99 44 96 5 5 5 43 22 5 64 100 100 100 87 97 100 100 77 58 33 25 20 7 22 10 9 2 28 97 88 66 84 11 17 24 38 12 11 5 5 5 5 25 5 7
100 100 90 24 100 74 61 5 5 5 5 72 5 31 64 91 34 26 25 22 9 0 0 0 0 0 0 0 0 0 0 46 56 63 11 29 57 4 5 9 5 5 5 5 71 65 16 3 3
100 100 79 11 41 77 93 5 5 4 5 77 69 8 20 19 5 7 5 3 0 0 0 0 0 0 0 0 0 1 4 5 5 2 4 5 3 4 5 3 5 5 5 12 26 77 24 5 5
100 100 100 76 90 86 40 6 5 5 43 10 16 20 5 2 5 5 5 2 4 4 1 0 0 3 0 0 4 2 5 0 2 5 5 5 5 5 5 5 6 12 16 34 53 35 35 53 54
100 95 99 100 100 100 87 100 100 96 98 99 94 62 28 5 5 2 0 0 0 0 13 34 1 1 2 0 0 5 2 3 5 6 5 5 23 80 81 86 85 99 79 38 85 52 93 85 85
100 100 100 100 100 100 100 100 100 100 96 100 100 100 95 7 5 5 0 2 2 4 5 5 14 12 7 4 4 4 2 5 2 2 5 5 5 4 51 100 100 100 100 99 63 70 99 86 86
100 100 100 100 100 100 100 100 100 98 100 64 54 59 11 5 0 5 5 5 5 9 5 79 22 37 73 77 5 5 5 5 7 19 42 2 12 100 100 69 4 26 25 5 4 8 5 5 3
100 100 100 100 100 83 100 100 100 90 88 73 29 27 5 5 14 30 24 8 5 80 100 100 100 100 36 100 100 88 29 76 87 87 100 100 93 16 4 65 5 5 4 1 2 6 36 5 4
100 100 100 100 100 100 100 100 100 100 86 89 96 100 28 16 52 48 45 94 52 100 100 83 64 100 87 95 100 100 100 81 100 100 100 100 100 98 100 51 38 5 5 5 5 5 34 89 27
100 100 100 100 100 100 100 100 100 99 100 100 87 100 85 84 99 32 100 100 96 99 100 88 76 100 91 100 100 100 100 92 100 99 83 36 77 77 11 8 5 6 64 38 5 5 5 45 39
100 100 100 100 100 100 100 100 100 62 100 100 100 100 100 100 100 100 100 100 100 100 100 95 91 100 98 100 100 100 100 92 100 93 100 100 100 89 65 45 51 66 6 13 5 5 5 31 70
100 100 100 100 100 100 100 100 100 95 55 100 100 100 100 100 100 100 100 100 100 100 100 98 100 100 100 100 100 100 100 100 100 100 100 94 52 98 96 80 91 100 99 42 90 39 32 44 74
100 100 100 100 100 100 100 100 100 100 100 100 100 100 100 100 100 100 100 100 100 100 100 94 100 100 100 100 100 100 100 100 100 100 100 100 100 98 91 17 24 100 92 97 98 100 100 100 100
100 100 100 100 100 100 100 100 100 100 100 100 100 100 100 100 100 100 100 100 100 100 100 100 100 100 100 100 100 100 100 100 100 100 100 100 100 100 100 100 99 63 88 97 100 100 100 100 100
100 100 100 100 100 100 99 100 100 100 100 100 100 100 100 100 100 100 100 100 100 100 100 100 100 100 100 100 100 100 100 100 100 100 100 100 100 100 100 100 100 100 100 100 100 100 100 100 100
100 100 100 100 100 100 100 100 100 100 100 100 100 100 100 100 100 100 100 100 100 100 100 100 100 100 100 100 100 100 100 100 100 100 100 100 100 100 100 100 100 100 100 100 100 100 100 100 100
100 100 100 100 100 100 100 100 100 100 100 100 100 100 100 100 100 100 100 100 100 100 100 100 100 100 100 100 100 100 100 100 100 100 100 100 100 100 100 100 100 100 100 100 100 100 100 100 100
100 100 100 100 100 100 100 100 100 100 100 100 100 100 100 100 100 100 100 100 100 100 100 100 100 100 100 100 100 100 100 100 100 100 100 100 100 100 100 100 100 100 100 100 100 100 100 100 100

GFSSGP_prec_cloud_210.txt.gz
Cloud_Cover
5 22 98 15 14 5 6 5 5 5 0 0 0 0 0 0 0 5 66 0 0 3 0 0 4 9 18 19 0 0 0 0 3 4 6 29 75 53 60 0 7 18 4 0 0 0 0 0 2
5 41 95 85 49 52 11 4 0 0 0 0 0 1 1 0 82 93 25 4 2 1 0 0 0 0 17 14 0 0 0 0 0 0 8 48 32 65 15 9 0 0 0 0 0 0 0 1 1
5 16 96 100 81 92 9 0 0 0 0 0 0 0 0 0 91 39 57 0 19 0 0 0 0 0 19 0 0 0 0 0 0 0 0 0 0 0 0 0 0 79 68 0 0 0 0 0 0
6 97 97 29 83 5 0 0 0 0 0 0 0 0 0 44 41 62 72 0 5 0 70 28 0 0 11 0 0 0 0 0 0 0 0 0 0 0 0 0 0 1 11 4 0 0 0 0 0
70 43 25 73 52 5 5 1 0 0 0 0 0 0 38 57 45 85 100 0 0 0 36 43 0 0 0 0 0 0 0 0 0 3 3 1 0 0 0 0 0 0 0 0 0 0 0 0 0
96 16 29 91 80 5 5 5 0 0 0 4 5 0 2 63 79 100 74 3 0 0 7 71 33 0 0 0 0 0 0 0 0 0 0 1 5 3 0 0 0 0 0 0 0 0 0 0 0
98 64 11 100 92 31 43 5 5 4 3 5 5 3 43 100 100 100 20 64 0 0 1 51 33 26 15 6 5 0 0 0 0 2 1 0 0 1 2 0 1 4 5 4 2 0 0 0 0
99 100 28 89 86 97 94 5 5 5 5 23 5 5 5 64 100 100 1 4 4 0 0 0 4 66 80 1 8 5 5 5 5 5 5 5 1 5 5 2 3 5 2 52 16 33 0 0 0
100 100 99 76 48 73 79 13 5 5 5 5 5 5 15 32 100 59 8 33 39 14 3 0 3 39 0 0 21 26 6 0 0 5 5 5 5 5 9 4 0 0 2 46 35 8 0 0 0
100 99 54 64 64 68 91 95 65 6 5 5 5 5 25 100 98 28 2 58 96 44 51 1 0 3 20 5 3 9 4 5 11 20 32 22 17 9 14 21 29 5 5 5 5 5 5 13 5
100 96 44 72 100 77 62 95 100 66 48 18 51 26 100 100 52 3 4 9 96 41 72 38 8 44 51 20 8 2 1 5 10 9 1 10 5 5 19 51 66 34 6 1 4 5 5 5 4
100 100 99 100 100 100 76 86 67 90 100 33 5 6 99 97 75 5 5 0 79 100 100 100 35 42 52 37 4 6 10 6 0 5 52 90 98 87 78 22 26 4 0 4 5 5 5 5 16
100 100 78 99 100 100 100 72 5 72 100 100 60 5 98 69 99 0 0 0 37 96 100 100 25 20 17 25 11 3 2 0 0 1 31 29 6 2 7 6 5 5 2 5 5 5 7 39 8
100 100 38 97 100 68 100 90 96 5 46 5 54 5 20 96 89 14 29 35 98 39 11 6 3 0 0 0 2 4 0 0 0 0 2 5 5 5 9 15 21 12 38 30 41 30 26 49 58
100 100 45 58 35 14 100 96 56 20 58 7 29 5 4 25 62 18 5 5 0 0 4 0 3 0 5 4 0 3 5 5 2 0 5 5 6 61 40 47 50 63 69 56 65 67 87 87 90
100 100 84 99 100 100 16 100 27 42 36 95 12 5 5 17 20 21 20 0 0 0 3 5 5 3 5 3 1 3 5 4 8 13 41 43 39 32 29 38 35 67 100 100 99 100 59 69 76
100 100 100 100 100 100 56 100 100 16 100 56 15 5 5 17 23 19 0 0 0 0 4 4 4 5 5 1 9 65 14 15 52 56 56 48 40 30 34 48 38 64 71 81 81 87 95 78 44
100 100 100 100 92 100 97 100 100 88 100 7 5 5 5 5 4 3 3 2 0 2 2 0 5 5 5 5 7 23 27 91 64 84 88 59 38 16 12 50 68 5 7 14 16 38 20 49 53
100 100 100 100 100 100 100 100 94 85 80 6 5 5 5 11 34 36 27 41 5 2 4 9 7 5 5 29 100 100 100 100 98 99 23 96 5 95 8 5 5 10 6 4 100 100 100 64 5
100 100 100 100 100 100 100 100 100 40 32 5 5 17 5 40 35 6 5 58 5 5 5 5 74 48 22 43 100 100 95 89 100 91 67 100 100 72 5 5 5 6 55 100 100 92 38 33 34
100 100 100 100 100 100 100 100 100 100 100 100 100 87 11 36 38 82 90 61 85 76 50 29 95 58 52 71 100 100 100 100 100 100 98 100 69 59 7 5 5 5 11 5 12 29 98 91 8
100 100 100 100 100 100 100 94 76 100 97 100 100 93 92 99 86 100 100 100 100 92 78 73 100 60 58 87 100 100 100 96 74 100 100 87 72 50 31 6 12 5 5 5 8 5 5 27 8
100 100 100 100 100 100 100 100 100 92 99 100 100 100 100 100 100 98 100 100 100 100 100 100 100 100 100 100 100 100 99 100 100 100 100 100 100 91 85 49 75 58 84 100 70 84 67 50 38
100 100 100 100 100 100 100 100 100 76 100 100 100 100 100 100 100 100 100 100 100 100 100 100 100 100 100 100 100 100 100 100 100 100 100 98 99 100 100 100 100 100 95 100 100 100 100 100 88
100 100 100 100 100 100 100 100 100 100 100 100 100 100 100 100 100 100 100 100 100 100 100 100 100 100 100 100 100 100 100 100 100 100 100 100 100 100 100 100 100 100 100 100 100 100 100 100 100
100 100 100 100 100 100 100 100 100 100 100 100 100 100 100 100 100 100 100 100 100 100 100 100 100 100 100 100 100 100 100 100 100 100 100 100 100 100 100 100 100 100 100 100 100 91 99 100 100
100 100 100 100 100 100 100 100 100 100 100 100 100 100 100 100 100 100 100 100 100 100 100 100 100 100 100 100 100 100 100 100 100 100 100 100 100 100 100 100 100 100 100 100 100 100 100 100 100
100 100 100 100 93 100 100 100 100 100 100 100 100 100 100 100 100 100 100 100 100 100 100 100 100 100 100 100 100 100 100 100 100 100 100 100 100 100 100 100 100 100 100 100 100 100 100 100 100
100 100 100 97 100 100 100 100 100 100 100 100 100 100 100 100 100 100 100 100 100 100 100 100 100 100 100 100 100 100 100 100 100 100 95 100 100 100 100 100 100 100 100 100 100 100 100 100 100
100 100 100 100 100 100 100 100 100 100 100 100 100 100 100 100 100 100 100 100 100 100 100 100 100 100 100 100 100 100 100 100 100 100 100 100 100 100 100 100 100 100 100 100 100 100 100 100 100

GFSSGP_prec_cloud_216.txt.gz
Cloud_Cover
5 5 5 0 3 16 88 32 1 39 46 0 0 66 59 9 22 46 0 0 0 0 0 0 3 0 9 0 0 0 5 0 2 20 39 80 54 27 10 0 77 84 5 0 0 2 0 0 0
8 5 2 4 5 100 89 82 82 3 0 2 0 11 0 30 22 9 0 0 0 0 0 5 0 0 0 0 0 0 3 17 50 56 52 42 65 21 0 0 43 1 0 0 0 0 0 0 0
10 5 4 5 72 100 100 100 32 2 0 0 0 13 0 23 42 80 3 1 0 0 0 0 0 0 9 0 0 0 0 0 7 54 53 22 11 1 0 60 99 18 0 0 0 0 0 0 0
97 23 4 5 27 77 100 100 97 0 0 0 4 0 0 20 69 79 1 3 0 0 0 0 0 1 0 0 0 0 0 0 0 0 3 0 0 0 0 0 0 2 6 0 0 0 0 0 0
100 100 21 5 100 100 83 88 0 12 0 0 1 14 5 4 53 0 0 0 0 0 0 0 0 0 0 0 0 0 0 0 0 1 0 0 0 0 0 0 0 0 0 0 0 0 2 5 2
100 100 83 69 85 63 70 13 0 33 3 0 8 1 41 17 12 19 0 0 3 1 0 1 33 0 0 0 0 0 0 0 0 0 2 0 5 0 4 5 4 0 0 0 0 0 0 5 0
100 100 86 92 94 95 26 9 1 69 17 19 14 0 46 65 2 1 0 0 0 1 0 0 0 32 6 0 4 0 2 0 0 0 0 5 5 4 5 4 1 4 2 0 0 0 0 0 0
100 100 100 16 83 76 5 5 2 10 38 0 0 47 18 17 27 0 0 0 0 1 91 6 2 0 0 0 3 2 1 2 0 0 0 0 0 0 0 0 0 0 0 0 5 5 16 3 0
100 100 100 98 80 47 6 5 12 5 0 0 0 0 0 8 0 0 0 0 0 37 89 100 15 100 44 0 25 13 4 0 0 0 0 0 0 0 0 0 1 6 19 11 57 5 5 5 2
100 100 100 100 100 10 8 45 70 4 1 3 0 0 3 98 0 0 0 0 0 0 2 43 0 72 40 0 0 0 0 5 68 78 1 23 0 0 7 44 96 91 18 4 8 4 1 2 2
100 100 100 100 100 73 49 99 99 5 2 5 2 5 55 98 0 0 0 0 0 0 0 0 89 49 0 0 0 6 0 99 49 20 0 0 0 83 76 20 17 0 64 0 0 0 0 0 0
100 100 100 100 100 58 84 100 100 11 78 13 22 4 6 6 4 2 0 0 15 14 45 0 3 43 86 7 0 18 1 6 0 0 0 0 0 0 0 0 0 0 3 2 53 100 99 60 100
100 100 100 100 100 100 100 87 100 71 7 42 5 0 17 5 5 5 12 7 1 45 0 5 22 9 20 99 25 87 38 4 21 3 5 4 5 1 1 2 22 91 100 100 83 2 5 6 5
100 100 100 100 100 100 91 78 100 78 5 5 25 5 2 5 6 84 100 100 96 4 0 0 4 24 9 6 87 10 5 42 5 7 10 5 8 38 100 100 100 100 100 72 20 22 40 14 5
100 100 100 100 100 100 100 100 100 100 64 7 32 11 5 8 5 31 100 100 100 76 35 4 0 0 35 2 2 4 16 12 5 10 6 22 96 100 100 100 100 100 100 27 81 90 99 92 89
100 100 100 100 100 100 100 100 99 100 100 19 5 5 9 24 5 41 7 41 5 40 100 88 24 1 0 3 5 5 33 5 30 93 100 100 100 100 100 100 100 100 37 43 100 100 84 15 5
100 100 100 100 100 100 100 100 64 100 100 82 54 75 48 59 3 59 78 7 11 41 79 55 32 5 2 0 18 11 30 88 100 100 100 100 100 100 98 94 73 55 34 9 11 5 5 12 5
100 100 100 100 100 100 100 100 100 100 100 100 100 100 100 100 86 23 100 100 100 100 99 97 73 5 5 5 6 97 100 100 100 100 100 100 98 98 57 34 5 5 5 40 5 11 5 5 5
100 100 100 100 100 100 100 100 86 100 100 100 84 30 91 79 44 99 98 89 100 100 100 100 100 100 100 100 100 100 100 100 100 100 100 100 100 25 13 47 5 5 18 58 85 77 38 5 5
100 100 100 100 100 100 100 100 100 100 98 87 40 81 100 98 100 100 100 100 100 100 100 100 100 89 99 100 100 100 100 100 100 100 100 100 100 98 87 93 42 22 24 25 100 91 71 14 6
100 100 100 100 100 100 100 100 100 100 100 98 20 7 100 100 100 100 100 100 100 100 100 100 100 99 91 100 100 100 99 100 100 100 100 100 100 100 100 100 51 100 69 44 60 91 73 93 50
100 100 100 100 100 100 100 100 100 100 100 100 100 64 35 68 100 100 100 100 100 100 100 100 100 100 100 100 100 100 100 100 100 100 100 100 100 100 100 100 94 99 69 87 100 79 90 99 57
100 100 100 100 100 100 100 100 100 100 100 48 100 100 81 98 100 100 100 100 100 100 100 100 100 100 100 100 100 100 100 100 100 100 100 100 100 100 100 100 100 100 100 100 100 96 96 86 77
100 100 100 100 100 100 100 100 100 100 100 98 100 99 94 100 100 100 100 100 100 100 100 100 100 100 100 100 100 100 100 100 100 100 100 100 100 100 100 100 100 100 100 99 100 95 95 99 90
100 100 100 100 100 100 100 100 100 100 100 100 100 100 100 88 100 100 100 100 100 100 100 100 100 100 100 100 100 100 100 100 100 100 100 100 100 100 100 100 100 100 100 100 100 100 100 100 100
100 100 100 100 100 100 100 100 100 100 100 100 100 100 100 100 100 100 100 100 100 100 100 100 100 100 100 100 100 100 100 100 100 100 100 100 100 100 100 100 100 100 100 100 100 100 100 100 100
100 100 100 100 100 100 100 100 100 100 100 100 100 100 100 100 100 100 100 100 100 100 100 100 100 100 100 100 100 100 100 100 100 100 100 100 100 100 100 100 100 100 100 100 100 100 100 100 100
100 100 100 100 100 100 100 100 100 100 100 100 100 100 100 100 100 100 100 100 100 100 100 100 100 100 100 100 100 100 100 100 100 100 100 100 100 100 100 100 100 100 100 100 100 100 100 100 100
100 100 100 100 100 100 100 100 100 100 100 100 100 100 100 100 100 100 100 100 100 100 100 100 100 100 100 100 100 100 100 100 100 100 100 100 100 100 100 100 100 100 100 100 100 100 100 100 100
100 100 100 100 100 100 100 100 100 100 100 100 100 100 100 100 100 100 100 100 100 100 100 100 100 100 100 100 100 100 100 100 100 100 100 100 100 100 100 100 100 100 100 100 100 100 100 100 100

GFSSGP_prec_cloud_219.txt.gz
Cloud_Cover
5 0 0 5 4 6 94 32 47 14 12 5 1 21 65 0 38 3 0 0 0 0 0 0 0 1 0 0 2 0 3 2 3 26 36 25 10 0 31 12 90 0 0 0 0 0 0 0 0
24 4 4 0 2 2 25 55 99 4 26 2 0 0 0 72 2 0 0 0 0 0 6 16 0 0 0 0 0 4 2 5 32 88 67 29 0 0 0 1 0 0 0 0 0 0 0 0 0
89 5 5 5 5 66 68 97 48 75 5 1 0 0 0 0 0 0 0 0 0 0 0 0 0 0 0 0 0 0 0 1 36 15 17 8 3 0 4 0 0 3 0 1 0 0 0 0 0
100 76 5 5 5 89 100 100 100 5 2 0 0 0 17 85 95 43 0 0 0 0 0 3 0 0 0 0 0 0 0 10 18 14 0 0 0 0 0 0 0 0 0 0 0 0 0 1 1
100 100 100 100 37 21 84 100 94 74 2 0 0 1 27 88 67 1 0 0 2 21 0 0 0 0 0 0 0 0 0 0 0 0 0 0 0 0 0 0 0 0 0 0 0 0 0 0 43
100 100 100 97 35 96 80 99 97 18 0 0 0 0 79 21 0 30 0 0 0 7 0 0 27 0 0 0 0 0 0 0 0 0 0 0 0 0 0 1 5 0 0 0 0 0 0 1 5
100 100 100 92 74 80 75 44 93 91 0 0 0 28 72 14 15 25 0 0 0 0 0 0 0 38 0 0 0 0 0 0 5 3 0 0 0 3 0 0 1 3 5 4 5 5 5 5 5
100 100 44 100 100 100 100 88 96 6 0 5 3 18 71 14 4 35 0 0 0 0 0 5 4 0 0 0 0 0 0 2 0 0 0 0 0 0 0 0 0 0 5 73 13 5 5 29 6
100 100 99 97 70 100 100 46 70 30 0 5 2 0 0 0 0 14 0 0 0 0 0 0 0 0 0 0 25 13 0 0 0 0 0 0 0 0 0 3 0 82 100 96 1 0 0 0 0
100 98 98 92 94 99 99 88 5 5 0 5 84 25 0 0 0 0 1 1 2 46 35 40 0 0 0 0 0 0 0 0 0 0 0 0 0 0 4 96 35 4 20 0 0 0 0 0 0
100 100 92 100 100 100 100 100 6 5 8 5 38 100 5 0 0 0 0 2 3 38 56 31 0 11 0 2 0 0 0 0 0 0 0 0 0 0 0 0 0 0 62 0 0 20 0 52 87
100 100 100 100 100 99 100 100 100 37 100 6 13 28 5 0 0 0 0 5 5 4 81 0 53 0 0 1 0 0 0 0 1 0 0 0 0 0 0 5 5 6 45 96 100 70 95 36 16
100 100 100 100 100 100 100 92 100 68 28 5 98 22 6 3 2 0 0 4 5 24 60 19 12 6 19 0 10 68 61 0 1 1 0 0 5 6 5 31 98 100 100 100 74 98 34 12 5
100 100 100 100 100 100 100 99 100 92 6 7 100 45 5 5 6 2 3 8 86 96 100 100 98 4 3 65 90 99 3 5 4 5 5 5 5 36 100 100 100 100 99 85 44 92 84 98 41
100 100 100 100 100 100 100 100 100 100 72 52 91 100 31 5 5 5 5 8 42 100 100 100 100 100 99 78 100 15 5 5 1 0 29 37 93 100 100 100 100 100 86 23 5 100 99 68 63
100 100 100 100 100 100 100 100 98 100 100 85 8 27 10 14 8 83 6 29 9 74 98 99 56 16 68 100 91 96 5 5 67 100 99 100 100 100 100 100 100 100 62 9 5 5 5 7 5
100 100 100 100 100 100 100 100 67 100 100 100 100 34 13 64 87 100 20 8 69 23 20 29 71 20 5 9 17 63 92 80 100 100 100 100 100 100 100 99 77 55 69 82 63 6 6 88 24
100 100 99 100 100 100 100 100 92 100 100 100 100 91 99 100 99 34 46 52 85 94 21 39 88 67 56 5 38 96 100 100 100 100 100 100 100 100 100 100 66 72 62 5 50 5 6 37 5
100 100 100 100 100 100 100 100 100 100 100 100 100 100 100 100 99 40 100 100 100 100 100 100 89 60 19 7 97 100 100 100 100 100 100 100 100 100 100 99 100 100 65 46 5 17 14 7 40
100 100 100 100 100 100 100 100 100 100 100 100 100 100 93 100 100 100 100 100 100 100 100 100 100 89 100 100 100 100 100 100 100 100 100 100 100 100 100 100 100 100 100 100 65 38 54 51 30
100 100 100 100 100 100 100 100 100 100 100 100 100 100 100 100 100 100 100 100 100 100 100 100 100 100 100 100 100 100 100 100 100 100 100 100 100 100 100 91 90 100 100 94 100 100 98 70 48
100 100 100 100 100 100 100 100 100 100 100 100 100 100 100 100 100 100 100 100 100 100 100 100 100 100 100 100 100 100 100 100 100 100 100 100 100 100 100 100 100 100 100 100 100 96 73 81 57
100 100 100 100 100 100 100 100 100 100 100 100 100 99 100 100 100 100 100 100 100 100 100 100 100 100 100 100 100 100 100 100 100 100 100 100 100 100 100 100 100 100 100 100 100 100 74 66 26
100 100 100 100 100 100 100 100 100 100 100 100 100 96 99 100 100 100 100 100 100 100 100 100 100 100 100 100 100 100 100 100 100 100 100 100 100 100 100 100 100 100 100 100 100 92 93 98 54
100 100 100 100 100 100 100 100 100 100 100 100 100 100 100 100 100 100 100 100 100 100 100 100 100 100 100 100 100 100 100 100 100 100 100 100 100 100 100 100 100 98 92 99 100 94 98 49 55
100 100 100 100 100 100 100 100 100 100 100 100 100 100 100 100 100 100 100 100 100 100 100 100 100 100 100 100 100 100 100 100 100 100 100 100 100 100 100 100 100 100 100 96 71 95 96 97 100
100 100 100 100 100 95 99 100 100 100 100 100 100 100 100 100 100 100 100 100 100 100 100 100 100 100 100 100 100 100 100 100 100 100 100 100 100 100 100 100 100 100 100 100 100 100 100 100 100
100 100 100 100 100 99 70 100 100 100 100 100 100 100 100 100 100 100 100 100 100 100 100 100 100 100 100 100 100 100 100 100 100 100 100 100 100 100 100 100 100 100 100 100 100 100 100 100 100
100 100 100 100 100 100 66 99 100 100 100 100 100 100 100 100 100 100 100 100 100 100 100 100 100 100 100 100 100 100 100 100 100 100 100 100 100 100 100 100 100 100 100 100 100 100 100 100 100
100 100 100 100 100 100 97 98 100 100 100 100 100 100 100 100 100 100 100 100 100 100 100 100 100 100 100 100 100 100 100 100 100 100 100 100 100 100 100 100 100 100 100 100 100 100 100 100 100

GFSSGP_prec_cloud_222.txt.gz
Cloud_Cover
100 5 5 5 2 14 99 65 68 100 95 77 5 0 4 0 0 6 0 0 0 0 0 1 0 6 18 0 0 5 0 8 44 33 29 3 0 0 1 0 2 0 0 0 0 0 0 0 0
100 12 5 3 4 2 91 31 34 49 5 8 5 0 0 0 0 8 21 2 0 0 0 17 0 0 8 6 1 3 0 10 48 89 75 16 0 0 0 0 6 3 0 0 0 0 0 0 0
100 26 5 3 5 5 6 6 16 64 5 5 3 0 0 0 0 0 0 0 0 17 13 4 0 0 0 0 0 0 7 34 32 30 84 5 10 76 16 8 0 0 0 0 0 0 4 5 0
100 78 12 5 5 15 11 24 41 45 36 2 0 2 0 0 0 0 0 0 30 32 1 0 0 0 0 0 0 0 15 23 32 14 1 0 1 2 0 10 5 0 0 0 0 0 0 0 0
100 97 41 5 40 16 68 68 100 58 60 3 0 42 14 54 25 0 0 10 72 41 4 0 0 0 0 0 0 0 11 8 0 0 0 0 0 0 0 0 0 0 0 0 0 0 0 0 2
100 100 74 65 62 58 59 82 100 19 9 4 0 0 29 100 37 0 0 28 36 52 16 0 10 0 0 0 0 0 0 0 0 0 0 0 0 0 0 0 0 0 0 0 2 0 0 3 2
99 100 58 100 37 86 100 100 94 82 10 5 4 57 55 95 53 0 0 20 31 23 23 14 1 0 0 0 0 0 0 0 0 0 0 0 0 0 0 0 4 1 0 0 5 72 5 3 1
100 100 100 70 100 100 100 100 93 100 40 5 5 17 44 47 28 13 0 28 52 51 30 33 22 0 0 0 0 0 0 0 0 1 0 0 0 0 0 0 0 0 1 5 100 100 0 0 0
100 100 100 100 100 100 100 99 58 72 66 10 44 9 5 5 9 26 0 68 84 64 34 30 28 8 0 0 25 0 0 0 0 0 0 0 0 0 0 0 3 3 5 15 52 2 0 0 0
100 100 100 100 100 100 100 100 100 99 85 58 69 5 5 5 49 24 0 41 61 52 32 16 22 12 0 0 1 0 0 0 0 0 0 0 0 0 0 24 0 2 0 0 0 0 0 0 0
100 100 90 100 100 100 100 100 100 100 100 10 18 34 5 6 71 49 9 0 5 5 1 0 3 1 0 0 0 2 0 0 0 0 0 0 0 0 0 0 0 0 54 0 0 5 49 69 84
100 100 92 80 100 100 100 98 100 100 100 52 6 23 5 14 72 79 63 1 0 5 17 40 0 4 0 0 0 0 0 4 0 0 0 0 0 0 0 0 5 40 100 29 5 5 50 55 31
100 100 100 100 100 100 100 100 100 100 100 100 23 92 18 5 66 43 88 5 1 1 5 9 14 78 83 5 2 0 3 4 4 0 0 0 0 0 1 44 100 97 100 76 73 51 37 84 64
100 100 100 100 100 100 100 87 100 100 100 100 100 83 90 98 99 51 62 26 5 4 5 5 84 100 100 100 75 49 62 72 6 5 5 5 10 10 100 100 100 87 100 82 31 21 6 20 6
100 100 100 100 100 100 100 100 100 100 95 50 100 100 41 61 100 89 89 84 65 46 6 9 41 100 100 86 100 100 100 100 18 40 94 82 80 100 100 100 100 100 100 75 8 6 5 5 10
100 100 100 100 100 100 97 100 98 100 100 100 78 100 62 45 74 100 86 99 100 77 11 74 91 100 100 99 95 100 46 60 84 100 100 100 100 100 100 100 100 100 98 99 62 68 100 96 100
100 100 100 100 100 100 100 98 100 100 100 100 48 79 100 94 57 94 100 100 100 100 97 100 100 100 100 92 78 100 100 99 75 100 100 100 100 100 100 99 98 100 86 24 15 5 48 88 90
100 100 100 100 100 100 100 100 100 100 100 100 96 100 100 100 94 79 86 100 100 100 100 100 100 100 58 79 96 98 100 100 100 100 100 100 100 100 100 100 100 100 100 99 66 91 100 99 86
100 100 100 100 100 100 100 100 100 100 100 100 100 100 100 100 100 100 100 100 100 100 100 100 96 100 100 100 100 100 100 100 100 100 100 100 100 100 100 100 100 100 100 100 100 100 100 77 97
100 100 100 100 100 100 100 100 100 100 100 100 100 100 100 100 100 100 100 100 100 100 100 100 100 100 100 100 100 100 100 100 100 100 100 100 100 100 100 100 100 100 100 100 98 79 100 100 99
100 100 100 100 100 100 100 100 100 100 100 100 100 100 100 100 100 100 100 100 100 100 100 100 100 100 100 100 100 100 100 100 100 100 100 100 100 100 100 99 100 100 100 89 100 100 100 99 100
100 100 100 100 100 100 100 100 100 100 100 100 100 100 100 100 100 100 100 100 100 100 100 100 100 100 100 100 100 100 100 100 100 100 100 100 100 97 100 100 100 100 86 100 100 100 100 100 84
100 100 100 100 100 100 100 100 100 100 100 100 100 100 100 100 100 100 100 100 100 100 100 100 100 100 100 100 100 100 100 100 100 100 100 100 100 100 100 100 100 100 100 100 100 65 7 5 67
100 100 100 100 100 100 100 100 100 100 100 100 100 100 100 100 100 100 100 100 100 100 100 100 100 100 100 100 100 100 100 100 100 100 100 100 100 100 100 100 100 100 91 52 29 10 41 72 73
100 100 100 100 100 100 100 100 99 100 100 100 100 100 100 100 100 100 100 100 100 100 100 100 100 100 100 100 100 100 100 100 100 100 100 100 100 100 100 100 100 100 83 71 72 68 74 62 55
100 100 100 100 100 100 100 100 100 100 100 100 100 100 100 100 100 100 100 100 100 100 100 100 100 100 100 100 100 100 100 100 100 100 100 100 100 100 100 99 93 100 72 82 54 25 77 97 99
100 100 100 100 100 100 100 100 100 100 100 100 100 100 100 100 100 100 100 100 100 100 100 100 100 100 100 100 100 100 100 100 100 100 100 100 95 100 100 100 100 100 100 100 100 100 100 100 96
100 100 100 100 100 100 100 100 100 100 100 100 100 100 100 100 100 100 100 100 100 100 100 100 100 100 100 100 100 100 100 100 100 100 100 100 100 100 100 100 100 100 100 100 100 100 100 100 100
100 100 100 100 100 100 100 100 100 100 100 100 100 100 100 100 100 100 100 100 100 100 100 100 100 100 100 100 100 100 100 100 100 100 100 100 100 100 100 100 99 100 100 100 100 100 100 100 100
100 100 100 100 100 100 100 100 100 100 100 100 100 100 100 100 100 100 100 100 100 100 100 100 100 100 100 100 100 100 100 100 100 100 100 100 100 100 100 100 100 100 100 100 100 98 29 76 100